Lapse_Rate
5.7 5.5 5.7 5.5 5.4 5.6 5.5 5.4 5.1 4.9 4.7 4.5 4.3 4.2 4.1 4.0 4.0 4.2 4.4 4.6 5.1 5.6 6.4 6.6 6.5 6.5 6.6 6.6 6.3 6.3 6.5 6.1 5.7 5.7 5.7 5.8 6.1 5.5 5.5 5.6 6.0 6.0 6.0
5.6 5.6 5.4 5.5 5.6 5.6 5.4 5.3 5.0 4.8 4.6 4.5 4.4 4.2 4.2 4.3 4.3 4.4 4.8 5.1 5.8 6.7 6.9 6.7 6.6 6.6 6.8 6.9 6.6 6.2 5.8 5.8 5.4 5.4 6.1 5.5 5.5 5.5 5.3 5.3 6.1 6.3 5.9
5.6 5.5 5.5 5.5 5.6 5.5 5.4 5.2 4.9 4.7 4.5 4.3 4.3 4.4 4.5 4.5 4.6 5.1 5.5 6.3 6.8 7.0 6.8 6.7 6.7 6.9 7.0 7.0 7.0 6.7 6.1 6.1 6.5 6.5 6.7 6.4 6.4 6.3 6.2 6.5 6.6 6.6 6.3
5.5 5.4 5.4 5.5 5.6 5.5 5.3 5.0 4.7 4.5 4.4 4.4 4.5 4.6 4.7 4.7 5.5 5.8 6.3 6.9 7.2 7.1 6.9 6.9 6.9 7.0 7.1 6.9 6.7 6.6 6.3 6.5 6.6 6.6 6.9 6.9 6.8 6.5 6.3 6.4 6.2 6.1 6.3
5.3 5.4 5.5 5.6 5.5 5.3 5.1 4.8 4.6 4.5 4.6 4.7 4.8 4.8 4.8 5.5 6.0 6.4 6.9 7.2 7.0 6.9 6.9 6.9 7.0 7.1 6.9 6.7 6.6 6.5 6.5 6.6 6.7 6.7 6.8 6.8 6.7 6.3 5.8 5.9 5.9 6.0 6.1
5.3 5.4 5.5 5.4 5.3 5.1 5.0 4.8 4.6 4.7 4.7 4.9 4.9 4.9 5.5 5.8 6.2 6.7 7.2 7.0 6.9 7.0 7.0 7.1 7.0 6.9 6.7 6.5 6.5 6.6 6.7 6.6 6.6 6.6 6.6 6.5 6.3 6.1 6.2 6.3 6.4 6.1 6.4
5.4 5.5 5.4 5.3 5.2 5.0 5.0 4.9 4.8 4.8 5.0 5.0 5.0 5.6 5.9 6.2 6.7 7.0 7.1 7.0 7.0 7.1 7.1 7.1 6.9 6.8 6.6 6.5 6.6 6.7 6.6 6.6 6.5 6.3 6.3 6.3 6.0 6.2 6.3 6.5 6.6 6.6 6.5
5.5 5.4 5.3 5.3 5.2 5.2 5.3 5.0 4.9 5.0 5.1 5.2 5.8 6.0 6.1 6.6 6.9 7.1 7.0 7.0 7.1 7.1 7.1 7.0 6.9 6.6 6.5 6.4 6.7 6.6 6.6 6.5 6.4 6.3 6.2 6.3 6.3 6.4 6.5 6.7 7.1 7.2 7.1
5.4 5.4 5.4 5.4 5.4 5.4 5.2 4.9 5.0 5.1 5.2 5.6 6.2 6.3 6.5 6.9 7.1 7.1 7.0 7.1 7.2 7.1 7.2 7.1 6.9 6.4 6.4 6.6 6.6 6.6 6.7 6.6 6.4 6.3 6.3 6.3 6.3 6.4 6.5 6.7 7.0 7.1 7.3
5.4 5.4 5.5 5.6 5.5 5.2 5.0 5.0 5.2 5.3 5.7 6.2 6.3 6.4 6.9 7.0 7.2 7.1 7.1 7.2 7.2 7.3 7.2 7.1 6.8 6.6 6.5 6.6 6.5 6.6 6.6 6.5 6.4 6.4 6.3 6.1 6.2 6.4 6.5 6.7 6.9 7.1 7.4
5.4 5.6 5.7 5.6 5.3 5.1 5.0 5.2 5.3 5.6 6.2 6.3 6.4 6.8 6.9 7.0 7.1 7.1 7.2 7.2 7.2 7.4 7.3 7.2 6.8 6.5 6.5 6.6 6.5 6.5 6.5 6.5 6.4 6.3 6.2 6.1 6.1 6.4 6.5 6.6 6.8 7.1 7.3
5.6 5.7 5.6 5.4 5.2 5.1 5.3 5.4 5.7 6.1 6.3 6.5 6.7 6.9 6.9 7.2 7.2 7.2 7.2 7.2 7.2 7.4 7.3 7.1 6.8 6.7 6.5 6.5 6.4 6.4 6.4 6.4 6.3 6.1 6.1 6.1 6.2 6.4 6.5 6.6 6.9 7.1 7.2
5.7 5.7 5.5 5.3 5.2 5.3 5.5 5.7 6.1 6.4 6.4 6.6 6.8 6.9 7.0 7.3 7.3 7.3 7.3 7.3 7.3 7.4 7.3 7.1 6.9 6.7 6.7 6.6 6.6 6.5 6.5 6.4 6.2 6.0 6.0 6.0 6.1 6.3 6.5 6.6 6.9 7.0 7.3
5.6 5.6 5.4 5.2 5.4 5.6 5.8 6.1 6.5 6.5 6.7 6.9 7.0 7.0 7.1 7.4 7.3 7.3 7.4 7.3 7.4 7.5 7.4 7.3 7.1 6.9 6.8 6.8 6.7 6.5 6.4 6.4 6.3 6.1 6.1 6.0 6.0 6.2 6.3 6.6 6.8 6.9 7.2
5.5 5.4 5.3 5.6 5.7 6.0 6.1 6.5 6.5 6.7 7.0 7.1 7.1 7.1 7.3 7.5 7.4 7.3 7.4 7.4 7.5 7.5 7.4 7.4 7.2 7.1 6.9 6.8 6.6 6.5 6.3 6.2 6.2 6.1 6.0 6.0 5.9 6.0 6.3 6.4 6.6 6.8 7.0
5.3 5.4 5.6 5.8 6.1 6.3 6.5 6.6 6.6 7.1 7.2 7.4 7.3 7.3 7.3 7.6 7.5 7.4 7.4 7.5 7.5 7.5 7.5 7.5 7.3 7.3 7.2 7.0 6.8 6.7 6.5 6.3 6.1 6.1 5.9 6.0 5.9 6.0 6.1 6.3 6.4 6.5 6.6
5.4 5.6 6.0 6.3 6.4 6.6 6.7 6.7 6.9 7.3 7.5 7.5 7.4 7.4 7.4 7.6 7.6 7.5 7.4 7.5 7.5 7.5 7.5 7.5 7.4 7.4 7.4 7.2 7.0 6.8 6.7 6.5 6.2 6.1 6.1 6.0 6.1 6.0 6.0 6.2 6.4 6.4 6.5
5.8 6.1 6.5 6.6 6.7 6.8 6.7 6.8 7.0 7.5 7.6 7.5 7.5 7.6 7.5 7.5 7.6 7.5 7.5 7.5 7.5 7.5 7.5 7.5 7.5 7.6 7.5 7.4 7.3 7.1 6.9 6.6 6.5 6.2 6.1 6.1 6.0 6.0 6.0 6.0 6.1 6.4 6.5
6.3 6.4 6.7 6.7 6.7 6.8 6.7 6.8 7.2 7.6 7.6 7.5 7.4 7.4 7.4 7.5 7.4 7.4 7.4 7.4 7.4 7.4 7.5 7.5 7.6 7.6 7.6 7.6 7.5 7.4 7.2 7.0 6.7 6.4 6.2 6.1 6.0 6.0 6.0 6.0 5.9 6.1 6.3
6.4 6.6 6.7 6.8 6.8 6.8 6.8 6.8 7.3 7.6 7.6 7.5 7.4 7.3 7.3 7.4 7.4 7.3 7.3 7.4 7.4 7.4 7.5 7.5 7.5 7.6 7.7 7.7 7.6 7.6 7.5 7.3 7.0 6.8 6.5 6.2 6.1 6.0 5.9 5.9 6.0 6.0 5.9
6.5 6.6 6.7 6.8 6.9 6.8 6.7 6.8 7.3 7.6 7.5 7.4 7.4 7.3 7.3 7.3 7.3 7.3 7.3 7.3 7.4 7.4 7.5 7.5 7.6 7.6 7.6 7.6 7.7 7.7 7.6 7.5 7.3 7.0 6.8 6.5 6.2 6.1 6.1 5.9 5.9 5.9 6.0
6.6 6.6 6.7 6.8 6.9 6.7 6.6 6.7 7.0 7.4 7.4 7.4 7.3 7.2 7.2 7.2 7.2 7.3 7.4 7.4 7.4 7.5 7.5 7.5 7.5 7.5 7.5 7.5 7.6 7.6 7.7 7.6 7.6 7.4 7.1 6.8 6.6 6.2 6.1 6.0 5.9 5.9 5.9
6.7 6.8 6.7 6.7 6.8 6.7 6.6 6.7 6.9 7.2 7.3 7.3 7.3 7.3 7.2 7.1 7.1 7.2 7.3 7.4 7.5 7.6 7.5 7.5 7.4 7.5 7.4 7.4 7.5 7.6 7.6 7.7 7.7 7.6 7.4 7.2 6.9 6.6 6.3 6.1 6.0 5.9 5.8
6.7 6.7 6.6 6.6 6.6 6.5 6.5 6.6 6.9 7.2 7.2 7.3 7.3 7.3 7.3 7.2 7.2 7.1 7.2 7.3 7.5 7.5 7.5 7.5 7.5 7.5 7.5 7.4 7.4 7.5 7.6 7.7 7.7 7.6 7.6 7.4 7.2 7.0 6.7 6.5 6.2 6.0 6.0
6.7 6.5 6.5 6.6 6.6 6.5 6.4 6.5 6.8 7.2 7.3 7.2 7.3 7.3 7.3 7.3 7.3 7.3 7.3 7.3 7.5 7.5 7.5 7.5 7.5 7.4 7.4 7.5 7.5 7.5 7.6 7.7 7.7 7.7 7.6 7.6 7.4 7.2 7.1 6.9 6.7 6.5 6.2
6.5 6.5 6.5 6.5 6.5 6.5 6.6 6.5 6.9 7.3 7.4 7.4 7.4 7.4 7.4 7.4 7.4 7.5 7.5 7.5 7.5 7.6 7.7 7.7 7.5 7.4 7.5 7.5 7.5 7.5 7.5 7.6 7.7 7.7 7.7 7.7 7.6 7.5 7.3 7.2 7.1 7.0 6.8
Wind_Speed
1 0 3 3 4 5 5 5 6 9 12 13 13 14 13 13 13 12 12 11 10 9 7 7 9 10 9 10 11 10 11 12 14 14 13 15 17 16 17 21 23 25 24
4 1 3 4 4 4 5 7 9 11 15 13 13 12 12 12 10 9 10 8 7 9 7 8 10 9 13 13 10 12 12 14 13 18 16 13 16 17 16 15 16 24 23
1 3 5 5 5 6 7 8 10 11 11 12 11 11 11 9 8 7 7 4 6 8 7 9 12 13 13 11 12 12 12 12 13 13 15 13 13 13 14 13 13 15 22
3 6 6 6 6 6 8 9 10 11 11 10 10 9 7 6 6 4 5 6 6 6 8 10 12 12 13 14 13 15 14 13 12 11 12 13 12 13 12 12 12 10 11
5 7 7 6 7 8 9 9 10 10 10 9 6 6 4 3 2 4 4 5 7 9 10 10 10 11 13 13 9 13 15 12 11 11 12 12 12 11 11 11 11 11 11
5 6 7 8 9 9 9 10 10 11 10 8 8 6 6 4 7 2 6 7 8 9 9 10 11 10 9 14 14 13 14 12 12 11 12 12 15 13 12 11 11 10 10
6 7 8 9 10 10 10 10 11 11 10 9 9 8 7 4 5 3 2 8 7 8 9 10 10 8 9 12 12 16 18 18 15 14 16 15 16 14 13 14 13 13 12
6 7 8 9 10 10 10 10 11 10 10 9 8 8 6 3 5 3 3 8 7 8 9 10 10 12 11 11 14 15 15 14 13 11 13 14 15 15 15 14 15 15 13
6 7 8 9 10 10 10 11 11 9 11 9 6 7 6 3 5 5 6 7 7 9 9 9 10 11 12 17 14 14 15 13 16 16 20 23 24 25 22 11 10 10 11
6 8 9 9 9 10 11 12 9 10 10 5 4 4 1 5 6 4 5 5 6 7 10 10 5 6 13 17 13 12 12 12 14 14 13 14 16 15 12 10 9 9 10
7 8 9 8 9 9 10 10 9 8 5 4 3 5 5 4 4 5 5 5 5 7 8 8 8 11 15 16 15 11 11 14 14 11 10 9 9 9 8 9 10 8 9
8 9 9 9 8 7 9 9 7 5 5 3 3 5 5 5 6 6 7 7 7 7 8 7 9 15 15 15 12 13 15 13 8 8 8 8 8 8 9 10 13 14 12
9 9 9 9 9 8 7 7 6 6 5 5 5 6 5 4 5 9 8 8 9 6 7 9 14 14 14 11 8 11 12 7 8 8 7 8 8 9 11 10 11 13 11
8 8 8 9 10 9 5 5 5 5 5 5 6 6 5 5 6 4 3 4 5 7 5 7 9 9 10 8 7 5 6 6 7 7 7 8 8 8 8 7 8 8 8
8 8 9 8 9 8 7 6 6 7 5 6 6 6 6 6 4 3 5 5 4 4 5 7 6 6 6 5 5 5 5 6 6 7 7 8 8 8 7 8 7 8 6
9 8 7 7 8 7 7 7 10 11 9 10 13 11 7 9 9 8 9 10 8 5 6 7 6 6 6 6 6 6 5 6 6 6 7 7 8 8 8 8 7 7 6
10 9 7 7 7 8 7 8 8 7 12 13 12 13 14 13 11 11 12 10 8 6 7 7 6 6 6 6 5 5 6 5 6 6 6 7 7 8 8 7 7 7 7
10 8 8 8 8 7 7 7 7 8 7 8 8 11 11 13 12 12 12 9 7 8 7 7 7 6 6 6 5 5 5 5 5 6 6 6 6 7 7 7 6 6 7
9 8 7 7 7 9 7 7 7 8 8 8 8 7 9 13 12 12 12 9 8 8 7 7 6 6 6 5 4 4 5 5 5 5 5 5 6 6 6 7 7 7 8
9 8 9 9 8 8 8 8 8 8 8 8 8 8 7 4 7 8 8 8 8 8 7 7 6 6 6 5 5 4 5 4 4 4 4 5 5 5 6 7 6 7 7
9 10 10 9 9 8 8 8 8 9 9 8 7 7 9 9 8 8 8 7 8 8 8 7 7 6 6 5 5 5 4 4 4 4 4 4 4 5 5 6 6 6 6
8 8 8 8 8 8 9 8 9 9 10 9 8 8 11 8 9 9 9 8 7 7 7 7 7 7 6 6 5 5 5 4 4 4 4 4 4 4 5 4 5 6 6
6 7 7 8 8 9 8 9 9 9 10 10 10 9 9 9 9 9 9 8 7 7 8 7 8 7 9 9 8 6 5 4 3 3 4 4 4 4 4 4 4 4 5
7 9 10 9 8 9 9 9 8 11 11 10 10 9 10 10 10 11 9 8 7 7 8 9 9 10 9 11 10 9 8 6 5 4 4 4 4 3 4 4 4 4 4
7 8 9 9 9 8 9 9 8 8 8 8 9 9 9 9 10 10 9 8 8 7 9 9 12 13 16 15 13 12 9 9 7 3 5 5 4 4 3 4 4 4 3
7 8 9 8 8 8 8 8 7 7 8 8 8 8 8 8 9 9 8 9 8 8 9 8 13 16 16 16 16 14 12 12 9 7 6 5 4 3 3 3 2 3 3
Wind_Direction
83 278 267 339 341 326 327 335 334 322 321 316 310 306 300 296 293 292 296 303 298 278 286 285 296 300 298 301 299 295 289 288 290 294 295 297 297 294 293 301 295 289 283
200 218 341 329 324 328 331 330 329 323 322 316 311 306 301 302 304 307 302 291 268 276 285 289 299 303 302 297 291 290 290 289 288 291 295 299 299 300 295 292 287 290 289
6 324 319 321 319 323 322 320 322 321 316 311 310 306 305 306 303 300 305 276 267 280 293 299 304 304 298 298 298 294 294 298 300 296 294 295 297 296 294 292 285 280 281
332 323 322 316 311 309 312 309 313 316 309 310 309 323 330 312 295 240 217 237 271 280 295 301 304 303 305 316 308 301 296 294 299 292 290 295 296 297 293 290 287 282 283
327 320 315 303 295 299 296 301 309 311 310 314 318 298 300 246 252 280 264 279 292 306 306 306 305 325 310 299 305 306 308 301 299 296 292 293 290 293 290 293 288 290 289
322 307 307 300 292 287 293 296 303 307 303 294 294 286 268 271 99 57 323 309 309 305 310 311 311 308 310 307 281 292 292 291 291 287 287 287 290 296 293 292 290 288 281
307 306 307 302 292 289 291 294 298 307 305 299 286 284 275 268 133 135 338 300 310 313 312 314 316 313 299 317 321 297 278 274 264 278 285 285 291 295 302 292 283 279 279
300 304 306 307 299 290 290 290 305 310 301 294 290 279 265 156 147 173 274 296 307 315 318 315 313 321 336 332 312 305 304 302 301 298 295 298 299 303 300 294 284 285 282
293 300 310 307 299 297 293 302 304 307 296 296 250 256 240 217 162 196 283 311 317 315 313 311 327 319 348 326 309 307 306 303 304 302 294 291 288 283 281 288 275 268 269
298 305 306 304 301 303 305 299 304 299 298 300 281 245 29 265 157 220 274 305 309 310 315 316 325 348 331 318 315 313 307 313 322 312 306 303 295 288 273 281 278 280 280
299 302 304 307 307 301 305 296 300 310 309 293 267 251 259 279 252 209 248 283 297 316 309 318 321 355 326 319 319 306 321 316 307 304 308 308 308 310 307 314 310 297 280
303 305 306 300 308 304 294 295 304 310 282 246 229 258 265 260 229 227 242 258 305 299 304 315 323 331 316 317 307 332 316 305 311 313 313 317 321 321 315 309 298 286 279
305 310 305 302 303 300 295 304 299 295 286 269 255 271 281 277 272 193 239 259 263 286 307 316 305 306 304 301 328 311 307 335 324 319 325 323 323 314 307 302 305 294 287
299 310 307 303 310 305 291 276 268 273 284 283 283 280 287 283 279 279 263 236 242 260 288 317 310 281 279 284 296 326 332 340 328 322 324 322 324 328 326 337 333 330 315
300 304 300 297 294 292 287 283 275 279 295 294 287 278 278 269 284 313 289 283 289 325 317 300 302 315 313 319 323 330 330 341 342 334 329 330 333 335 338 338 340 337 348
296 294 298 298 294 287 283 282 231 229 256 254 257 257 271 261 268 253 245 256 264 265 288 297 306 309 309 315 323 326 333 336 345 330 332 334 334 333 335 335 343 343 344
287 297 287 281 278 284 281 279 281 271 220 233 246 253 263 259 264 248 249 249 255 236 267 291 298 300 302 301 312 319 327 342 323 334 330 336 336 330 329 337 343 345 339
272 264 270 283 282 273 271 275 279 276 279 287 244 235 254 250 251 254 242 233 255 222 246 272 288 291 290 292 303 314 322 327 332 334 329 335 337 330 332 338 338 342 339
279 278 274 276 273 270 266 267 265 268 268 276 282 249 234 242 245 249 244 242 254 259 262 267 271 275 278 281 290 293 300 309 322 320 326 329 336 333 333 339 333 334 322
279 257 257 270 270 268 265 259 260 263 262 263 267 272 274 205 239 241 228 235 242 250 261 265 266 268 268 270 271 273 275 289 310 314 330 326 331 327 331 333 335 333 337
288 282 267 271 267 265 258 256 257 261 263 260 260 256 251 263 265 258 260 245 235 248 249 248 255 254 253 252 259 262 267 282 296 310 312 324 331 320 334 328 330 333 337
286 280 279 277 281 275 274 263 256 254 258 259 259 255 243 239 254 258 255 253 243 239 244 241 238 240 241 244 245 248 253 261 272 289 300 305 311 321 324 329 333 336 339
275 277 279 277 269 271 268 267 262 257 255 251 251 252 248 240 240 244 246 245 241 236 233 234 233 233 227 227 232 235 242 245 257 277 283 294 304 328 318 333 339 341 348
277 281 282 282 279 279 274 269 267 268 268 263 259 255 247 243 240 238 236 234 229 228 226 223 227 225 219 214 215 219 224 222 218 232 247 277 289 308 312 322 338 343 339
281 282 282 283 282 281 282 277 275 272 268 268 270 265 262 257 249 240 233 227 220 222 232 221 220 219 213 207 210 210 204 189 208 222 233 246 263 279 290 299 334 328 356
292 298 302 303 303 309 310 302 290 285 283 282 276 270 269 266 264 253 237 225 218 217 227 220 220 217 205 205 206 200 190 185 192 207 232 244 249 251 272 281 296 312 339